Theta_e
325 326 326 327 327 327 327 327 328 328 328 328 328 328 328 328 328 328 328 328 328 329 329 328 329 328 328 328 327 327 327 327 327 327 327 327 327 326 326 326 326 326 326 325 323 322 322 322 323 323 323 323 324 324 324 324 324 322 322 321 319 318 318 316 315 315 314 313 311 310 309 307 305 304 303 302 302 300 299 299 296 294 292 291 290
323 324 325 325 326 326 327 327 327 327 328 328 328 328 328 328 328 328 328 329 329 329 329 328 328 328 327 327 326 326 326 326 326 326 325 325 324 323 324 325 326 325 326 325 322 320 320 321 323 324 324 324 324 324 324 324 323 322 321 320 320 318 318 317 315 313 313 313 311 309 308 305 303 303 301 300 301 300 299 298 296 294 293 291 290
321 322 323 324 325 325 326 326 326 327 327 327 327 328 328 328 328 328 328 329 328 328 328 327 327 326 326 326 325 325 325 325 325 325 325 325 324 323 324 325 325 325 324 324 322 320 321 321 322 323 324 324 324 324 324 324 323 322 322 320 319 319 318 317 315 313 312 312 310 308 307 304 302 302 300 299 299 299 298 297 296 294 293 291 290
319 321 322 323 324 324 325 325 326 326 326 327 327 327 328 328 328 328 327 327 327 326 326 325 325 325 324 324 324 324 324 323 323 323 323 324 323 323 324 324 324 324 322 321 320 321 322 322 322 323 323 323 323 323 323 322 321 321 321 320 320 319 318 317 316 314 312 310 309 308 306 304 302 301 299 298 297 297 297 296 295 294 292 291 290
315 316 318 321 321 323 323 324 324 325 325 326 326 326 326 325 325 325 325 325 324 324 324 324 323 323 323 323 323 322 322 323 323 323 322 322 323 323 323 323 323 323 321 320 320 321 321 321 322 322 321 321 321 322 322 320 319 319 319 319 319 318 318 316 315 313 311 309 308 306 304 302 300 299 298 297 296 296 295 294 293 292 291 290 289
310 311 312 314 316 317 318 319 320 320 321 321 321 321 322 322 322 323 322 323 322 322 322 322 321 322 323 322 320 320 321 321 321 321 322 322 322 322 322 322 322 321 320 320 320 320 320 321 321 321 320 320 320 320 320 319 318 317 317 317 317 316 315 315 313 311 309 307 305 304 302 300 298 296 296 295 294 293 292 291 291 291 290 289 288
310 309 309 310 311 311 312 312 313 314 315 316 317 318 319 320 321 321 321 321 320 320 320 319 320 320 321 321 320 321 321 321 321 320 320 321 321 320 320 320 320 319 319 320 320 320 320 319 319 319 319 319 319 319 319 318 318 317 317 315 314 313 313 312 310 308 306 303 302 301 300 299 296 294 294 293 292 292 291 290 290 290 289 288 288
310 310 310 309 309 309 309 310 311 312 313 315 316 317 318 319 319 319 319 319 319 319 318 318 318 318 319 319 319 319 320 320 320 319 319 319 319 319 318 319 319 319 319 320 319 318 318 318 317 317 317 317 318 317 317 317 317 317 317 314 312 312 311 310 308 305 303 301 300 299 298 296 295 293 292 291 290 290 291 290 290 290 290 289 288
310 310 310 310 310 310 310 310 311 312 314 315 316 316 316 317 318 318 318 318 318 317 316 316 315 315 315 316 316 317 317 317 318 317 317 317 318 318 318 318 319 319 319 318 317 316 317 317 317 317 317 316 316 316 315 315 315 315 315 313 312 311 310 308 306 304 302 299 298 298 296 294 294 292 291 291 291 291 291 290 289 290 289 288 288
309 309 310 310 310 310 311 312 312 313 314 314 315 316 316 316 316 317 316 316 315 314 313 312 311 310 310 311 312 313 313 314 314 315 315 316 317 317 317 318 318 318 317 317 316 316 316 317 316 316 315 315 314 314 313 313 313 313 313 312 311 311 310 308 306 304 301 298 298 297 294 293 293 293 292 292 292 291 290 289 289 288 287 287 287
309 309 309 310 310 311 311 312 312 313 314 314 314 314 314 315 314 314 314 313 312 311 310 307 306 306 307 309 310 312 312 312 313 314 315 315 316 316 316 316 316 316 316 316 316 315 315 315 314 314 314 313 312 312 312 311 311 311 310 310 309 309 308 307 306 304 301 299 299 297 294 293 294 293 292 292 291 290 290 289 288 288 287 286 286
309 309 309 309 309 310 310 311 311 311 312 312 312 312 312 312 312 311 311 310 309 308 307 305 305 305 305 306 308 310 311 312 312 313 313 314 314 315 315 316 315 315 315 315 314 314 313 313 312 312 312 312 311 311 311 310 309 308 308 308 308 307 306 305 304 303 302 300 299 297 296 295 294 294 293 292 291 290 289 288 288 288 287 286 286
309 309 309 309 309 310 310 310 310 310 310 310 310 310 310 309 309 309 308 307 306 305 304 304 305 306 306 306 307 308 309 310 310 310 311 313 314 314 315 315 314 314 314 313 312 312 311 311 310 310 310 310 310 310 309 309 308 308 307 307 307 307 306 304 303 301 300 299 298 298 297 296 295 295 295 293 290 289 288 288 288 287 287 286 287
309 309 309 310 310 310 310 310 310 310 310 310 309 308 308 307 307 306 305 304 304 304 304 305 306 307 308 308 308 309 310 311 310 310 310 312 313 313 313 313 313 313 313 312 311 310 309 309 309 308 308 308 308 308 308 308 307 307 306 306 305 305 304 303 302 301 299 298 296 296 297 296 296 296 293 290 288 288 288 288 288 287 287 286 286
309 309 309 309 310 310 310 310 310 310 309 308 307 307 306 305 304 303 303 303 303 304 305 306 308 308 308 309 310 310 310 310 311 310 311 311 312 312 312 312 312 312 311 311 310 309 308 308 308 308 307 307 307 307 307 306 305 305 305 304 304 302 301 300 300 299 298 297 296 295 295 294 292 291 289 287 287 287 287 288 287 287 287 286 286
308 308 308 309 309 309 310 310 309 308 307 305 305 305 304 303 302 302 302 303 304 305 306 307 308 308 309 310 311 311 311 311 311 311 311 311 311 311 312 311 311 310 310 309 308 308 308 308 308 307 307 306 306 306 305 305 304 304 303 303 301 299 298 297 297 296 295 294 293 292 291 289 288 287 286 286 286 286 286 286 286 286 286 285 285
308 308 308 308 309 309 309 309 308 307 304 304 304 304 303 302 302 302 303 303 305 306 306 307 308 308 308 309 310 311 311 311 311 311 311 311 311 312 311 310 310 309 308 307 307 307 307 307 306 306 306 306 305 305 304 304 303 302 301 300 298 297 296 295 294 293 292 291 290 289 288 287 287 287 287 286 286 286 286 286 286 286 285 284 284
307 307 308 309 309 309 308 308 307 305 303 304 305 304 303 302 302 302 302 303 305 306 307 308 308 308 308 308 309 310 311 311 311 311 311 311 312 312 311 310 310 309 308 307 306 306 307 306 305 305 305 305 304 304 303 302 301 299 298 296 295 295 295 293 292 291 290 289 288 288 288 287 287 287 287 286 286 286 286 286 286 286 285 284 284
307 308 310 309 308 308 308 307 307 306 305 305 305 303 303 302 302 302 302 303 305 306 307 308 308 308 309 309 309 310 311 311 310 310 310 311 311 311 310 310 309 308 307 307 306 305 305 305 305 305 305 304 303 302 300 299 298 297 295 294 293 294 293 292 290 290 289 288 287 287 287 287 287 287 286 286 286 286 286 286 286 285 285 284 284
309 309 309 308 307 307 307 306 306 306 306 305 304 302 302 302 302 302 303 304 305 305 306 307 308 308 309 309 309 309 309 309 309 308 308 309 309 310 309 309 308 308 307 306 304 304 304 303 303 303 302 302 301 300 299 298 297 295 294 293 293 293 292 290 289 289 288 287 286 286 286 286 286 286 286 285 285 285 285 285 285 285 285 284 283
309 308 306 305 305 305 305 305 305 305 304 303 302 301 301 301 301 302 303 304 304 304 305 306 306 307 308 308 308 308 308 308 307 307 307 308 308 308 308 308 307 307 305 304 303 303 302 302 302 301 300 300 300 299 298 297 295 294 294 294 292 291 290 289 288 287 287 286 286 285 285 285 285 285 285 285 285 285 285 284 284 284 284 284 283
307 305 305 305 304 304 304 304 304 303 302 301 300 299 299 300 301 303 304 304 304 304 304 304 305 306 306 306 307 307 306 306 306 306 306 306 306 306 306 306 306 305 303 302 302 302 301 301 301 300 299 299 299 298 297 296 295 294 294 293 291 289 289 288 287 286 286 286 285 285 285 284 284 284 284 284 284 284 284 284 284 284 284 283 283
304 304 304 304 304 304 304 303 302 301 300 300 299 298 298 299 301 303 304 304 303 303 303 303 304 304 304 305 305 305 305 305 305 305 305 305 304 304 304 304 303 302 301 301 301 301 300 300 300 299 299 298 298 297 296 295 294 293 292 290 289 288 288 287 287 286 286 285 284 284 284 284 284 284 284 284 284 284 283 283 283 283 283 283 282
303 303 302 303 303 303 303 303 302 300 300 299 298 298 298 299 300 302 303 303 302 302 301 301 301 301 301 302 303 303 303 304 304 304 304 303 303 303 302 302 300 300 300 300 300 300 299 299 298 298 297 297 296 295 294 292 291 290 289 288 288 287 287 287 287 286 285 285 285 285 284 284 284 284 284 283 283 283 283 282 282 282 282 282 282
302 302 302 302 302 302 302 301 301 300 299 298 297 298 298 299 300 301 301 302 301 300 299 299 299 299 298 300 301 302 302 302 303 303 302 302 302 301 301 301 300 299 299 299 299 298 298 297 296 296 295 295 293 292 291 290 289 288 287 287 287 286 286 287 286 286 286 285 285 285 285 285 284 284 283 283 283 283 282 282 282 281 281 281 280
302 302 302 302 301 301 300 299 299 298 298 297 297 298 298 298 299 299 299 300 299 299 298 298 297 297 297 298 299 300 301 301 301 301 301 300 300 300 300 299 299 299 298 298 297 296 295 295 294 293 293 292 291 290 289 288 287 286 286 286 286 286 287 287 286 286 286 286 285 285 285 284 284 283 283 283 282 282 282 281 281 281 280 280 279
302 301 301 301 300 299 299 298 297 297 297 297 297 297 297 298 298 298 298 298 298 298 298 297 296 296 296 297 297 298 299 300 300 300 299 299 299 298 298 298 298 297 297 297 295 294 293 293 292 291 291 290 289 288 287 287 286 286 285 285 285 285 286 286 286 286 285 285 285 284 284 283 283 283 282 282 282 282 281 281 280 280 280 279 277
301 300 300 300 299 298 298 298 297 296 296 296 297 297 297 297 297 298 298 298 298 298 297 297 296 297 297 297 296 296 296 298 299 299 298 298 297 297 296 296 296 296 296 295 294 292 292 291 290 290 289 288 288 287 286 286 285 285 285 284 284 284 285 285 285 285 284 284 283 283 282 282 282 282 282 281 281 281 280 280 279 279 278 277 276
300 299 299 298 297 297 297 297 296 296 296 296 296 297 297 297 297 298 298 298 298 298 298 297 297 297 297 297 296 295 295 297 299 299 298 297 296 295 295 295 295 294 293 292 292 291 290 289 289 288 288 287 287 286 286 285 285 284 284 284 284 284 284 284 284 283 283 282 282 282 281 281 281 281 281 280 280 280 280 279 279 278 277 276 276
298 298 297 297 297 296 296 295 295 295 295 295 295 296 296 296 297 297 297 297 298 298 298 298 297 297 297 297 298 297 296 297 298 297 296 295 295 294 293 293 292 291 291 290 290 289 288 288 287 287 287 286 286 285 285 285 284 284 284 283 283 283 283 283 283 283 282 282 281 281 281 280 280 280 280 280 279 279 279 278 278 277 277 276 275
297 297 297 297 296 296 296 295 295 295 295 295 295 295 295 295 296 297 297 297 297 297 297 297 297 297 297 297 298 298 297 296 296 295 295 294 293 291 290 290 289 289 289 289 288 288 288 287 287 286 286 285 285 285 284 284 284 283 283 283 283 283 282 282 282 282 282 281 281 281 280 280 279 279 279 279 278 278 278 278 277 277 276 276 275
297 297 296 296 296 296 295 295 295 295 295 295 295 295 294 293 294 295 296 297 297 297 297 297 297 297 298 298 297 297 296 295 295 294 293 292 290 289 288 288 288 288 288 288 288 287 287 286 286 285 285 285 284 284 283 283 283 283 283 283 282 282 282 282 282 281 281 281 281 281 280 280 279 279 278 278 278 278 278 277 277 276 276 276 275
297 297 296 296 295 295 295 294 294 294 294 294 294 294 294 293 292 292 293 294 296 297 297 297 297 297 297 297 296 296 295 294 292 291 291 290 288 288 287 287 287 287 287 287 287 286 286 285 285 285 284 284 283 283 283 283 283 282 282 282 282 282 282 281 281 281 281 281 281 280 280 280 280 279 279 279 278 278 277 277 277 276 276 275 275
297 297 297 296 295 294 294 294 294 294 294 294 294 294 293 293 292 291 290 290 291 292 294 295 296 296 295 294 294 294 293 291 290 289 289 288 287 287 286 286 286 286 286 286 286 286 285 284 284 284 283 283 282 282 282 282 282 282 282 282 282 282 281 281 281 281 281 281 280 280 280 280 280 279 279 279 279 278 277 277 276 276 275 275 274
296 296 296 296 295 294 294 294 294 293 293 294 294 294 293 293 292 291 290 289 289 288 289 290 292 293 293 293 292 291 290 289 288 288 288 287 287 286 285 285 286 286 285 285 285 285 284 284 283 283 282 282 282 282 282 282 282 281 281 281 281 281 281 281 281 281 280 280 280 280 280 280 280 280 279 279 278 277 277 277 276 276 275 275 274
295 295 295 295 295 294 293 293 293 293 293 293 293 293 293 292 291 290 290 290 288 287 286 286 288 289 290 290 290 289 288 288 288 287 287 286 285 285 285 285 285 285 285 284 284 284 283 283 283 282 282 282 282 281 281 281 281 281 281 281 281 281 280 280 281 280 280 280 280 280 280 280 279 279 279 278 277 277 277 277 276 276 275 275 275
294 293 293 294 294 293 292 292 292 292 293 292 292 292 292 291 290 289 288 288 286 285 285 284 285 285 286 286 287 287 287 286 286 285 285 284 284 284 284 285 285 285 285 284 283 283 283 282 282 281 281 281 281 281 281 281 281 280 280 280 280 280 280 280 280 280 279 279 279 279 279 279 279 278 278 277 277 277 277 277 276 276 275 275 275
292 292 292 292 292 291 291 291 291 291 291 291 291 291 290 289 288 287 286 285 284 284 283 283 283 284 284 284 285 285 285 284 284 284 284 283 283 284 284 284 284 284 284 283 282 282 282 281 281 281 281 281 281 280 280 280 280 280 280 279 279 279 279 279 278 278 278 278 278 278 277 277 277 277 277 277 277 276 276 276 276 275 275 275 274
291 291 291 291 290 290 290 290 289 289 289 289 289 289 288 287 286 285 284 283 283 282 282 282 282 283 283 283 283 283 283 283 283 283 283 283 283 283 283 283 283 283 282 282 282 281 281 281 281 280 280 280 280 279 279 279 279 279 279 278 278 278 278 277 277 277 277 277 277 276 276 276 276 276 276 276 276 276 276 275 275 275 274 274 274
289 289 289 289 289 289 289 288 288 288 287 287 287 287 286 285 284 284 283 282 281 281 281 281 281 281 282 282 283 283 282 282 282 282 283 283 283 283 282 282 282 282 281 281 281 281 280 280 280 279 279 279 279 278 278 278 278 277 277 277 277 277 276 276 276 275 275 276 276 276 275 275 275 275 275 275 275 275 275 275 275 275 274 274 274
288 288 288 288 288 288 287 287 286 286 286 286 286 285 285 284 284 283 282 281 281 280 280 280 280 281 281 282 282 282 282 281 281 281 282 281 281 281 281 281 281 281 280 280 279 279 279 279 278 278 278 278 277 277 277 276 276 276 276 275 275 275 275 274 274 274 274 274 274 274 274 274 274 274 274 274 274 274 274 274 274 274 274 274 273
287 287 287 286 286 286 285 285 285 285 285 284 284 284 284 283 283 282 281 281 280 279 279 279 280 280 280 281 281 281 281 281 280 280 280 280 280 280 279 279 279 279 278 278 278 278 277 277 277 277 276 276 276 275 275 275 274 274 274 274 273 273 273 273 273 272 272 271 272 272 272 272 272 272 273 273 273 273 273 273 273 273 273 273 273
286 286 286 285 285 285 284 284 284 283 283 283 283 283 283 283 282 281 281 280 279 278 278 278 278 279 279 279 280 280 280 280 279 279 278 278 278 278 277 277 277 277 277 276 276 276 276 276 276 275 275 274 274 274 273 273 273 272 272 272 272 271 271 271 270 270 269 269 269 269 270 270 270 270 270 271 271 271 272 272 272 272 272 272 272
286 285 284 284 283 283 283 283 283 282 282 282 282 282 282 281 281 280 279 278 278 278 278 277 277 278 278 278 279 279 279 278 277 277 277 277 276 276 276 276 276 275 276 275 275 276 275 275 274 274 273 273 273 272 272 271 271 271 271 270 270 269 269 269 269 268 268 267 267 268 268 268 268 268 268 268 269 270 270 271 271 271 271 271 271
285 284 283 283 282 282 282 282 281 281 281 281 280 280 280 279 279 278 278 277 277 277 276 276 276 276 276 277 277 277 276 276 276 276 276 276 275 275 274 274 275 275 275 275 275 275 274 274 273 273 272 272 271 271 270 270 270 269 269 269 268 268 268 267 267 267 267 266 266 266 266 266 266 266 266 266 267 268 268 269 270 270 270 270 271
283 283 282 282 281 281 280 280 280 280 279 279 278 278 278 278 278 277 277 276 276 276 275 275 275 275 275 275 275 275 275 275 275 275 275 274 274 274 274 274 274 274 274 274 274 274 273 272 272 271 271 270 270 270 269 269 269 268 267 267 267 267 267 266 266 266 266 266 266 265 265 265 264 264 265 265 265 266 266 267 268 268 269 269 269
282 282 281 281 280 279 279 279 279 278 278 278 277 277 277 277 277 276 276 276 275 275 275 274 274 274 274 274 275 274 274 274 274 274 273 273 273 273 273 273 274 274 273 273 273 272 272 271 271 270 270 269 269 268 268 268 267 267 267 266 266 266 266 265 265 265 265 265 264 264 264 263 263 263 263 264 264 264 265 265 266 267 268 268 268
281 280 280 279 279 278 278 278 278 277 277 277 276 276 276 276 276 275 275 275 274 274 274 274 274 274 274 274 274 274 273 273 273 273 272 272 272 272 273 273 272 272 272 271 271 271 270 270 269 268 268 268 268 268 267 267 267 267 267 267 266 266 265 265 265 264 264 264 264 263 263 263 262 262 263 263 263 263 264 264 264 265 266 267 267
279 279 279 278 278 277 277 277 277 277 276 276 275 275 275 275 274 274 274 274 273 274 274 274 274 274 273 273 273 273 273 273 272 272 272 272 272 272 272 272 271 271 271 270 270 269 269 268 268 267 267 267 267 267 267 267 267 267 267 267 266 266 265 265 265 265 264 264 264 263 263 262 262 262 262 262 263 263 263 263 264 264 265 265 266
278 278 278 277 277 277 276 276 276 276 275 275 275 274 274 274 274 273 273 273 273 273 273 274 274 273 273 273 273 272 272 272 272 272 272 272 272 272 272 271 271 270 270 269 269 268 267 267 267 267 266 266 267 267 267 267 267 267 266 266 266 266 266 266 266 265 264 264 263 263 263 262 262 262 262 262 262 262 262 263 263 264 264 264 265
277 277 276 276 276 276 276 275 275 275 274 274 274 274 274 274 273 273 274 274 274 273 273 273 273 273 273 273 273 273 273 273 273 272 272 272 272 271 271 270 270 269 269 268 267 267 267 266 266 266 266 266 266 266 266 266 266 266 266 266 267 267 266 266 265 265 264 264 263 263 262 262 261 261 261 261 261 262 262 263 263 263 264 264 264
Wind_Speed
33 35 35 36 36 36 35 35 35 35 35 35 36 36 36 36 35 34 33 32 31 31 31 30 30 30 29 29 29 29 28 28 28 28 28 29 29 29 29 28 28 27 25 22 21 23 25 28 31 33 32 30 31 32 34 36 36 36 35 34 34 34 31 26 18 16 22 26 24 23 24 28 32 34 35 38 40 41 40 38 37 36 35 33 30
32 33 33 33 34 35 35 35 34 34 34 34 34 35 35 34 33 32 32 31 30 29 29 28 28 28 28 28 27 26 26 26 26 25 26 27 28 27 26 25 26 27 27 25 23 24 26 27 29 33 34 33 33 33 34 35 36 35 33 33 35 35 34 32 27 18 19 25 27 25 25 27 30 33 34 36 39 41 41 39 37 36 35 33 30
30 30 30 31 32 32 32 33 32 32 32 33 33 34 34 33 31 30 30 29 28 27 27 26 26 26 26 25 24 23 23 23 23 23 25 26 26 27 28 28 29 29 28 25 24 25 27 27 28 29 31 32 32 33 34 36 36 35 34 35 35 34 35 34 30 23 21 23 26 26 26 26 28 30 32 34 36 39 41 40 38 36 34 32 30
27 27 28 29 30 30 30 31 30 30 31 32 33 32 31 30 29 29 28 27 26 25 24 24 23 23 23 23 22 22 22 22 22 23 23 23 25 28 29 29 27 25 23 22 22 24 26 26 27 27 28 29 31 32 33 34 34 34 34 34 34 35 35 34 32 29 24 21 23 25 25 25 26 28 30 32 34 37 38 37 36 35 33 30 29
24 25 27 28 28 29 29 29 29 30 31 32 32 30 29 28 28 27 26 25 24 23 23 22 22 22 22 22 22 21 21 21 21 22 23 24 26 27 25 23 22 22 22 22 22 23 24 26 26 26 26 27 28 29 31 31 32 32 32 33 32 32 33 32 31 30 26 23 23 23 22 23 25 26 29 30 33 34 34 34 33 32 30 29 28
22 23 25 26 28 29 28 29 30 31 31 31 30 29 28 27 26 25 25 24 23 23 22 22 22 21 21 21 22 22 21 20 21 22 23 23 23 21 19 19 21 21 21 21 23 25 25 26 26 26 25 25 25 27 28 29 29 29 30 30 29 28 29 30 28 26 26 25 23 21 22 24 24 25 27 28 30 31 30 30 30 30 29 29 28
21 22 23 25 26 27 28 29 30 30 29 28 27 26 26 25 25 24 24 24 23 23 23 22 22 21 21 21 21 21 20 20 21 20 20 19 18 18 19 21 21 21 21 23 23 23 22 23 23 23 23 24 25 26 27 27 27 27 28 28 26 25 25 26 24 22 23 22 21 20 21 22 23 23 23 24 25 26 26 26 28 30 30 29 29
21 22 23 24 25 27 27 28 27 26 26 25 25 24 24 24 24 24 25 25 24 24 23 23 24 23 23 23 23 22 22 21 21 20 19 17 18 21 22 22 22 22 22 22 20 18 17 18 19 19 20 21 22 24 24 24 24 25 26 25 24 23 23 23 21 20 21 20 20 20 20 20 21 20 18 19 22 26 29 30 30 32 32 31 30
21 21 23 25 26 26 25 25 24 24 24 23 23 23 24 24 24 25 25 25 25 25 25 25 25 25 25 25 25 25 25 25 24 24 23 22 22 23 22 21 21 21 20 19 17 16 15 15 14 15 16 18 20 21 21 21 22 23 25 24 23 23 22 21 20 20 19 19 20 20 19 19 21 20 20 23 26 28 29 29 29 28 27 27 29
21 22 24 26 25 24 23 23 23 23 23 24 24 24 24 25 25 26 26 26 26 25 25 24 23 23 23 23 22 23 22 22 22 22 22 22 22 22 21 20 20 19 18 17 16 14 14 13 12 13 13 15 17 17 17 18 18 20 22 23 23 22 22 21 21 20 18 18 20 21 19 19 22 24 25 28 28 26 24 25 26 24 20 19 22
23 24 26 25 24 24 24 24 24 24 25 25 25 26 26 26 27 27 27 26 26 25 23 23 22 21 21 21 20 19 18 17 17 16 17 17 18 19 19 19 19 18 17 16 14 12 12 12 12 12 12 13 14 14 14 15 15 17 18 20 20 19 20 20 20 20 19 20 22 21 19 20 22 24 26 26 25 25 26 25 24 22 20 16 14
26 26 27 26 26 26 25 25 26 26 27 27 27 27 27 27 27 26 26 25 23 21 21 20 19 18 19 21 22 22 20 19 18 17 17 17 17 18 18 17 16 16 15 14 13 12 12 11 11 11 11 11 12 12 13 13 14 14 15 16 16 16 17 18 19 20 20 21 22 22 22 22 21 22 24 25 26 26 26 25 23 23 22 20 18
28 28 29 28 28 28 27 27 27 28 28 28 28 27 26 26 26 25 24 22 20 19 18 17 15 14 15 17 18 19 20 19 19 19 19 19 18 18 18 16 14 13 13 12 12 11 10 10 10 9 9 9 9 10 10 10 10 11 12 13 14 15 16 18 18 20 22 22 22 23 23 22 21 23 24 25 25 24 24 24 25 24 23 24 25
30 30 30 30 29 29 28 29 29 29 29 28 27 26 26 25 25 23 21 20 19 19 18 17 17 16 16 16 15 16 18 18 19 19 19 19 18 17 17 16 15 14 13 12 11 9 8 7 7 7 6 6 5 6 6 7 8 9 11 12 14 15 17 18 19 20 23 23 23 23 23 22 22 24 23 22 21 22 24 26 26 26 26 26 25
31 31 31 30 31 30 30 30 30 29 28 27 26 26 26 25 24 23 21 20 20 20 18 18 18 18 17 17 17 18 18 18 19 19 19 18 17 17 17 17 16 16 15 14 12 9 7 5 5 5 4 3 3 4 5 7 8 10 11 12 14 15 17 18 18 20 23 24 24 24 23 22 21 20 19 19 18 19 22 24 24 24 24 23 22
30 31 31 32 32 32 32 31 31 30 29 27 28 28 28 27 26 24 23 22 21 20 19 19 19 19 19 19 19 19 19 19 20 19 19 19 18 17 17 16 16 15 14 13 10 8 7 6 5 5 4 3 3 5 6 8 9 10 11 11 13 14 16 17 18 19 21 21 21 21 20 19 18 18 17 17 16 17 18 19 20 19 18 17 19
32 33 34 35 35 34 34 33 32 31 30 30 31 32 30 29 27 25 24 24 23 23 22 21 20 19 19 19 19 20 20 20 20 19 19 18 17 16 16 15 14 13 11 9 8 7 7 7 7 6 4 4 4 6 7 8 8 9 9 10 12 13 14 15 16 17 17 17 17 18 18 18 19 18 17 16 15 15 15 16 18 18 17 15 14
35 35 37 39 38 37 36 35 34 33 32 33 34 34 32 30 28 27 26 26 26 24 23 21 21 20 20 21 20 20 19 19 19 19 18 17 16 15 15 14 13 12 10 9 9 9 8 8 7 5 5 5 5 6 7 8 7 7 8 9 12 14 14 14 14 15 15 15 16 17 17 18 18 18 17 16 15 15 15 17 18 18 19 17 13
39 40 43 43 41 39 37 37 36 35 36 36 36 35 33 31 30 28 27 26 26 24 23 22 22 22 22 22 22 21 20 20 20 20 19 18 17 16 16 16 15 14 13 12 11 10 9 8 7 6 6 6 6 6 6 6 5 6 7 8 11 13 13 13 13 13 13 14 15 15 15 16 16 16 15 15 15 15 16 18 19 19 20 19 15
45 45 43 40 39 39 38 38 38 38 38 38 36 34 33 31 30 28 27 27 25 24 24 24 24 23 23 22 22 21 20 20 19 18 18 18 18 18 18 18 17 15 14 14 13 11 10 9 8 8 8 7 6 5 5 5 5 5 6 8 10 11 12 12 12 12 11 11 12 13 14 14 14 14 14 15 15 16 16 18 20 21 20 19 17
46 43 39 35 35 37 38 39 39 39 38 35 33 32 32 32 31 30 29 28 26 26 26 25 25 24 23 23 22 21 21 21 20 18 18 18 18 19 19 18 16 15 15 14 13 11 10 9 8 8 8 7 6 6 6 5 5 6 6 7 8 10 11 13 13 12 11 11 12 12 13 13 14 14 15 16 17 18 18 19 20 21 22 22 21
41 37 35 35 35 36 37 38 38 37 35 33 32 32 32 32 31 30 30 29 28 27 26 26 26 24 24 23 23 23 23 22 21 21 20 20 20 20 19 16 15 14 14 14 13 12 10 9 8 8 8 7 7 6 6 6 6 7 6 6 7 9 11 13 13 12 12 12 12 13 14 14 15 16 17 18 18 19 20 20 20 21 22 23 22
36 33 33 34 35 36 36 37 36 35 34 33 32 32 31 32 31 31 31 30 28 27 26 27 26 25 25 24 24 24 24 23 23 22 21 21 20 19 17 16 15 15 15 14 12 11 9 9 8 8 8 7 7 6 6 6 6 6 6 6 7 9 11 12 12 13 13 12 13 14 15 15 16 17 18 18 19 19 20 20 21 21 22 23 23
31 31 32 32 34 35 36 35 35 34 34 33 32 31 31 32 32 32 32 31 29 28 27 28 27 26 26 26 26 25 25 24 23 22 21 20 19 18 17 16 15 15 14 12 11 10 10 9 9 8 8 7 7 6 6 6 6 5 5 6 7 9 10 11 12 12 12 12 13 14 15 16 17 18 18 18 19 19 19 20 20 21 22 23 24
31 32 32 33 34 34 34 34 34 34 33 33 33 33 33 33 33 33 32 31 30 28 27 28 28 27 26 26 27 27 25 23 22 21 20 19 18 17 16 16 15 15 14 13 13 12 11 10 9 9 8 7 6 6 5 5 4 4 5 6 7 9 10 10 11 12 12 13 14 15 16 17 17 17 17 17 18 19 20 20 20 20 21 22 23
32 33 33 34 34 33 32 31 32 32 32 33 33 34 34 34 33 32 32 31 30 29 28 28 28 26 25 26 26 27 26 24 23 22 20 19 18 17 16 16 16 15 15 14 13 12 11 10 9 8 7 6 6 5 4 4 4 4 4 5 7 9 10 11 11 12 13 14 14 16 16 16 16 16 16 17 18 18 19 19 20 20 20 20 21
32 33 33 33 32 32 32 31 31 31 31 32 33 32 33 34 32 31 32 32 30 29 28 27 27 26 25 25 25 26 26 26 24 23 22 20 19 18 18 18 18 17 17 16 14 13 12 11 9 8 7 6 5 4 4 4 3 3 4 5 6 8 9 10 11 12 12 13 14 15 15 15 15 16 16 16 17 18 18 19 19 20 20 19 19
32 33 33 32 31 31 32 32 32 32 32 34 34 34 34 35 35 35 37 37 34 32 31 30 30 29 27 25 24 24 25 27 27 26 24 22 21 20 20 20 19 19 19 17 15 13 12 11 9 8 7 6 5 4 4 3 3 3 3 4 5 6 7 9 10 11 11 12 13 14 14 15 15 16 16 16 17 17 17 18 18 19 19 17 16
29 29 28 27 28 29 30 31 31 31 31 33 34 34 35 36 36 35 35 35 35 33 32 31 32 30 28 27 27 26 26 28 30 27 24 23 22 22 22 21 21 20 18 17 15 14 12 10 9 8 6 5 5 4 3 3 2 2 2 3 4 5 6 7 9 9 10 11 12 13 13 14 14 15 15 15 16 17 17 17 18 18 17 16 17
25 25 25 26 28 28 28 28 28 28 27 28 29 29 29 31 32 31 30 30 30 30 29 29 29 28 27 28 28 28 28 28 27 24 23 22 22 21 20 20 19 18 17 16 14 14 13 11 9 8 7 6 5 4 3 2 1 0 0 1 2 3 4 6 7 8 9 10 11 12 12 13 14 14 14 15 16 16 16 16 17 16 16 16 18
24 25 27 29 29 29 28 27 27 27 26 26 27 25 24 24 26 27 27 27 27 26 26 25 25 26 26 26 26 26 26 25 24 24 23 22 21 20 19 19 18 18 17 16 14 13 13 12 10 8 7 6 5 3 3 2 1 1 1 0 1 2 3 4 5 7 8 9 10 11 11 12 13 13 14 14 15 15 16 16 16 15 16 17 18
27 27 29 30 30 30 29 27 27 27 26 25 26 25 22 20 19 20 23 24 25 26 25 24 23 24 25 25 25 24 24 23 23 23 23 22 21 20 19 18 18 17 16 15 14 13 12 12 11 9 7 6 5 4 3 3 2 2 1 0 0 1 2 3 4 6 7 8 9 10 11 12 12 13 13 13 14 15 16 16 16 16 17 18 19
31 29 28 28 29 29 28 27 27 28 28 27 27 27 26 23 21 19 18 19 22 24 25 25 25 23 23 23 23 24 23 22 21 22 23 23 21 20 19 18 17 16 16 15 15 14 13 11 10 9 8 6 6 5 5 4 3 2 1 0 1 2 3 4 5 6 7 8 9 10 11 11 12 13 13 13 14 15 15 15 16 16 16 18 19
32 30 29 29 29 29 29 29 29 29 29 29 29 29 29 27 25 24 22 20 19 20 22 24 25 24 22 21 21 21 21 21 22 23 23 22 21 20 20 18 16 15 15 14 14 14 13 11 10 9 8 7 7 6 5 4 3 2 1 0 1 2 3 4 5 6 6 7 9 10 10 11 12 13 14 14 14 15 15 15 16 16 16 17 18
30 29 29 29 30 30 30 30 30 29 28 29 29 29 28 27 27 27 26 23 21 21 21 21 22 22 22 21 20 21 22 23 23 23 22 21 20 20 20 19 18 16 15 13 13 14 13 12 11 9 8 7 6 5 5 4 3 2 1 1 1 2 3 4 5 6 7 8 9 10 11 12 13 13 15 15 15 15 15 15 15 16 17 17 18
29 28 28 29 30 30 29 29 29 29 29 29 28 27 26 26 26 26 25 23 22 21 22 22 21 21 21 22 22 23 23 23 23 22 21 20 21 22 23 23 22 19 17 15 14 13 12 10 10 8 7 7 6 5 4 4 3 2 1 1 2 3 4 5 5 6 8 9 10 12 12 13 14 15 15 16 16 16 16 16 16 17 17 17 17
28 28 28 28 29 27 26 26 27 28 28 28 27 27 26 26 26 25 24 23 23 23 23 24 24 22 21 21 22 23 22 22 21 20 20 21 22 23 24 24 22 20 18 16 14 13 12 10 9 9 8 7 6 5 4 3 2 2 2 3 4 4 4 5 6 7 9 10 11 12 12 13 14 15 15 16 17 16 16 16 17 17 17 17 17
28 28 27 27 26 25 24 23 24 25 26 26 26 26 26 25 26 25 23 23 24 24 25 25 25 25 24 23 23 23 23 22 22 21 21 22 22 21 21 21 21 19 18 16 15 13 12 11 10 9 8 7 6 5 4 3 3 3 3 3 4 4 5 6 7 8 9 10 11 12 13 14 14 15 15 17 17 17 17 17 17 17 17 16 16
26 26 25 25 25 24 24 23 23 24 24 24 25 25 25 24 24 23 23 23 23 24 25 25 25 26 27 27 27 27 27 26 25 24 23 22 21 20 20 21 21 19 18 17 15 14 13 11 10 9 8 7 6 5 4 4 4 5 5 6 6 6 6 7 8 8 9 10 11 11 12 13 13 13 14 15 17 17 16 16 16 16 16 17 17
24 23 23 23 24 24 24 24 24 24 24 25 24 24 24 23 23 23 23 23 23 23 24 24 24 26 28 29 30 30 29 27 26 25 24 23 22 21 21 21 21 19 17 16 14 13 12 11 9 8 7 6 6 5 6 6 7 7 8 8 8 8 7 7 7 7 8 8 10 10 11 12 12 13 14 15 16 16 16 16 17 18 18 18 18
21 21 21 22 23 23 23 23 24 24 25 25 25 24 24 24 24 25 25 24 24 24 23 23 24 26 28 28 29 29 28 28 27 26 26 25 24 22 21 20 19 18 16 15 13 12 11 9 8 7 7 6 7 7 8 8 9 9 10 9 9 9 9 9 8 8 8 9 9 10 10 10 10 11 12 13 14 14 15 16 17 18 17 17 18
20 20 20 21 23 23 23 23 23 24 24 24 24 25 25 25 26 26 26 26 25 25 24 24 24 26 26 26 26 26 27 28 28 27 26 25 23 22 21 19 17 16 15 13 12 10 9 8 7 6 6 7 7 8 8 9 9 9 9 9 9 9 10 9 9 9 9 9 8 8 9 9 9 10 11 12 13 14 15 15 16 16 17 18 19
20 20 20 21 22 23 23 22 22 23 23 24 24 25 26 27 27 28 27 27 26 27 26 26 25 25 24 24 25 25 26 27 28 26 26 24 23 21 20 18 16 15 13 11 10 8 7 6 6 6 7 7 8 8 9 9 9 9 9 9 9 9 9 9 9 8 9 9 9 10 10 10 11 12 12 13 14 14 15 15 16 16 17 18 18
20 20 20 21 21 21 21 22 22 22 23 23 24 25 26 27 27 27 27 27 26 26 27 27 27 26 26 25 25 26 26 26 26 25 24 23 21 20 18 16 14 13 11 9 7 5 5 5 6 6 7 8 8 9 9 10 10 10 10 10 9 9 9 9 8 8 9 10 10 10 11 12 12 12 12 12 13 13 14 14 15 16 17 17 17
20 20 20 20 20 19 19 20 21 21 22 23 23 23 24 24 24 24 24 24 25 25 26 26 26 27 26 25 25 26 25 25 24 23 22 21 19 18 16 13 12 10 8 6 5 4 4 5 6 7 8 9 10 10 10 10 10 10 10 10 9 9 8 9 9 9 9 9 10 11 11 12 12 12 12 12 12 13 14 14 15 15 16 16 16
20 20 20 20 20 19 19 19 19 20 21 22 23 23 23 23 23 23 23 23 24 25 25 25 25 24 24 24 24 24 24 23 22 21 19 18 16 15 13 11 9 7 6 5 4 4 5 6 7 8 9 10 10 10 10 10 9 9 9 9 9 9 9 8 9 9 9 9 10 10 11 11 11 11 11 11 12 12 13 14 15 15 15 15 15
20 21 21 21 21 20 20 20 20 20 19 20 21 22 24 24 25 25 25 25 25 25 25 24 23 23 23 23 23 23 22 21 19 18 17 15 13 12 10 8 7 6 5 4 4 5 5 7 8 8 9 10 10 10 9 9 9 9 9 9 9 8 7 7 7 8 8 8 9 10 11 11 12 11 12 12 12 13 13 14 14 14 14 14 14
20 21 21 21 22 22 22 22 22 21 20 20 20 21 22 24 25 25 26 26 26 26 25 24 23 23 23 22 22 21 20 18 17 16 14 12 11 9 7 6 5 5 4 4 5 5 6 7 8 8 8 9 9 8 8 8 8 8 8 7 6 6 5 6 6 7 7 8 9 10 11 11 12 12 12 12 13 14 14 14 14 13 13 13 13
20 20 21 21 22 22 22 23 23 23 23 23 23 22 22 23 23 24 25 25 25 25 25 24 24 23 22 21 20 19 17 16 15 14 12 10 9 7 6 5 5 5 5 5 6 6 7 7 8 8 8 8 8 8 7 7 7 6 6 5 5 5 5 6 6 7 7 8 8 9 10 11 11 12 12 12 13 14 14 14 13 12 12 12 12
19 19 20 21 21 21 21 22 23 23 24 25 25 25 25 25 25 24 25 25 25 24 24 24 23 22 20 19 18 17 15 14 12 11 9 8 7 7 6 6 6 6 6 6 7 7 8 8 8 8 8 8 8 7 7 6 6 6 6 6 6 6 6 6 6 6 7 7 8 9 10 11 11 12 13 13 13 13 13 13 12 12 11 11 11
20 20 21 21 22 22 22 22 23 23 24 25 27 28 28 28 27 27 26 26 26 24 23 21 20 19 18 17 15 14 13 11 10 9 8 8 7 7 7 7 7 6 7 7 8 8 9 9 9 9 8 8 8 8 7 7 7 7 7 7 7 7 7 7 7 7 8 9 10 10 10 11 11 12 13 14 13 13 12 12 12 11 11 11 12
Wind_Direction
225 227 228 228 230 231 233 235 237 239 240 240 242 244 246 247 249 252 253 254 254 255 255 255 255 256 255 255 254 254 254 254 254 254 253 254 256 257 257 255 252 249 249 258 271 276 274 271 268 265 261 257 255 256 258 255 249 244 243 243 239 234 231 227 232 249 250 248 249 248 241 237 238 238 237 235 232 229 230 232 233 233 235 237 240
227 228 229 230 231 233 235 236 237 238 238 239 241 243 246 248 249 250 251 253 253 252 253 254 254 254 253 253 254 255 256 255 255 255 255 257 257 259 262 261 260 259 258 260 269 277 276 270 267 263 257 254 255 257 259 257 251 247 245 244 242 239 234 229 229 237 247 248 245 242 238 235 236 237 236 234 232 229 228 229 231 232 235 237 240
229 229 229 230 232 233 234 235 236 236 237 238 241 243 245 247 248 249 250 251 251 251 252 252 252 252 252 252 253 255 257 258 258 258 258 258 258 259 260 258 257 258 257 260 269 276 275 272 270 265 257 253 255 259 263 261 254 249 247 245 243 242 240 236 234 234 241 246 246 243 241 237 237 238 237 234 232 229 229 230 230 232 235 237 239
227 227 227 229 230 230 232 233 233 234 236 238 241 242 244 245 245 246 248 249 249 248 249 249 249 249 249 250 252 255 257 258 258 258 258 257 258 260 261 257 254 255 259 267 274 276 274 272 273 272 265 260 261 264 265 261 255 249 247 245 243 242 241 239 238 238 240 246 249 248 245 241 240 239 236 233 230 230 230 231 232 234 237 239 240
227 227 227 227 228 228 230 230 231 234 236 238 240 241 242 243 243 244 244 245 245 245 245 245 246 247 247 249 252 255 256 257 257 256 255 255 255 256 256 254 254 259 267 273 277 279 278 276 276 278 274 268 267 268 266 262 256 250 247 244 242 241 241 241 241 240 240 244 250 249 244 241 240 238 235 232 229 227 227 229 232 235 238 240 241
227 226 226 226 227 228 229 230 232 235 236 237 238 239 240 240 240 241 241 242 243 243 243 243 244 245 246 248 251 252 251 252 254 255 254 253 250 250 253 255 259 266 273 279 282 282 280 278 279 279 276 273 272 272 270 266 260 254 252 249 246 243 241 241 242 240 239 242 247 248 244 241 238 235 234 232 227 224 223 225 230 234 237 240 241
225 224 224 225 226 227 229 231 232 233 234 235 236 237 237 237 238 239 240 241 242 241 241 241 241 242 243 245 247 246 243 244 246 248 249 249 249 257 266 266 266 270 274 276 276 275 275 277 278 278 277 277 277 276 274 271 268 265 261 255 249 244 241 240 240 239 237 240 244 246 247 245 240 237 237 232 226 226 225 223 226 231 234 237 240
223 223 223 224 226 227 228 229 230 230 231 232 234 235 235 236 237 238 239 240 241 241 240 240 240 240 242 242 242 243 244 244 246 249 253 257 261 267 270 268 267 269 270 269 267 266 269 272 274 277 278 279 278 277 276 274 273 272 268 259 250 245 242 241 240 236 234 236 240 244 246 245 240 237 238 230 220 223 226 224 226 231 233 236 239
221 220 222 223 225 225 226 226 226 227 229 230 231 233 234 235 236 237 239 240 242 242 242 242 242 241 242 243 242 243 245 245 247 252 257 260 261 262 263 263 263 264 265 265 264 262 264 269 273 275 275 276 275 273 273 271 268 269 269 261 253 247 245 244 241 238 236 235 238 240 240 241 237 230 228 226 221 224 226 223 226 234 237 239 242
218 218 220 222 223 222 223 224 224 225 227 228 230 232 233 235 236 238 240 241 242 244 246 246 244 241 241 242 242 242 244 245 246 249 251 253 253 253 257 260 262 263 266 267 265 260 260 267 272 274 274 273 271 270 270 268 266 266 266 263 258 255 251 247 244 242 238 236 240 240 236 238 237 231 229 230 230 230 227 223 225 231 235 241 247
217 219 221 222 222 222 223 223 225 226 227 228 230 232 233 235 237 239 241 242 244 245 246 245 242 238 235 235 234 234 235 236 237 239 242 244 247 250 256 260 261 261 264 268 269 267 266 271 275 279 281 280 279 279 278 276 270 265 262 262 263 262 258 253 251 250 245 242 245 243 238 241 244 239 237 237 235 233 230 226 226 226 225 229 240
217 220 223 222 221 223 223 224 225 226 226 228 230 231 233 235 238 240 241 242 242 242 240 239 237 235 231 230 230 230 231 232 233 235 238 241 246 249 251 254 258 259 261 267 275 277 278 281 284 288 292 293 293 290 286 283 277 269 265 265 266 267 266 263 260 258 254 253 252 248 246 247 248 247 245 244 241 237 233 230 230 228 225 225 230
217 219 222 222 221 222 223 223 225 226 226 228 229 231 233 236 237 237 237 235 232 231 230 228 226 225 223 225 226 226 228 231 232 232 233 236 240 244 246 248 254 258 260 263 269 273 277 285 290 293 293 292 293 291 289 288 284 279 278 279 279 280 279 275 270 265 262 259 257 255 254 253 255 261 262 254 245 237 232 232 233 233 230 230 234
216 219 220 221 222 222 222 223 225 227 227 227 228 230 232 233 232 229 227 224 221 221 221 217 217 218 218 217 217 219 221 223 226 228 228 230 235 241 244 247 249 253 256 255 257 262 270 279 282 281 281 283 287 290 291 293 293 292 292 292 292 291 289 285 281 275 269 263 259 260 263 265 268 272 270 261 251 245 241 241 240 238 236 237 242
216 219 219 220 221 221 221 223 225 227 226 225 226 228 228 227 224 220 218 218 217 217 216 216 217 218 218 218 218 219 218 218 221 225 225 225 230 235 238 240 242 245 248 248 247 247 252 262 263 257 259 268 275 283 290 292 295 297 296 295 294 291 288 285 282 280 277 272 268 268 270 271 271 269 264 263 263 260 255 251 249 247 243 242 246
215 218 219 220 221 221 221 222 224 224 223 221 222 223 224 222 219 215 214 214 215 215 216 218 219 218 221 223 222 223 223 222 223 225 225 225 229 231 233 234 235 237 237 236 234 232 235 238 233 230 234 249 266 280 288 290 291 291 291 292 292 291 289 288 286 284 283 280 275 271 268 264 262 261 263 267 269 266 258 252 250 246 240 239 245
217 219 220 222 222 222 221 220 221 221 218 218 219 220 220 219 215 212 211 210 210 213 215 216 218 219 223 225 225 228 228 223 222 223 222 222 223 224 225 225 227 228 226 222 219 215 218 222 221 220 225 241 260 271 275 278 282 285 290 295 295 295 295 295 293 289 285 280 273 266 260 258 259 263 268 270 270 267 255 246 246 239 229 231 245
220 220 223 225 224 223 221 220 219 217 216 217 219 218 218 216 213 211 210 210 211 212 214 216 217 219 223 224 226 230 229 224 223 225 224 220 219 220 221 221 223 223 220 218 215 210 212 218 220 220 223 236 251 261 266 272 279 285 293 296 295 298 303 303 298 292 285 278 272 266 263 263 265 269 273 273 272 268 258 254 255 245 232 233 247
222 223 226 227 225 223 222 219 218 217 218 219 219 218 216 214 211 210 210 212 213 212 213 215 218 219 222 223 222 224 227 227 225 225 224 222 221 221 221 222 222 219 217 217 216 214 214 216 218 222 229 238 247 255 262 271 282 289 293 291 290 299 310 311 304 297 290 282 277 274 272 272 273 274 276 276 275 272 267 264 262 254 245 247 255
226 226 227 226 223 222 220 219 218 218 220 220 218 217 216 212 209 208 208 210 213 213 213 215 219 220 221 221 220 220 224 226 222 219 219 219 218 218 218 217 216 213 212 215 217 218 217 216 220 228 236 240 243 249 259 271 283 285 284 285 289 299 309 310 305 303 300 294 289 284 280 278 278 278 279 280 278 276 270 262 258 255 254 257 259
228 227 226 225 224 222 221 220 220 220 220 219 216 215 214 211 208 206 205 207 210 211 213 216 218 219 220 220 221 222 224 225 222 219 220 218 217 217 216 214 213 214 214 215 217 219 220 220 223 233 238 237 236 242 252 264 275 279 282 290 295 298 300 300 300 302 302 300 298 293 288 284 283 283 283 282 281 277 271 265 262 260 259 259 261
229 227 226 225 225 224 222 221 221 219 218 217 214 213 212 210 208 205 204 205 207 209 212 214 215 217 219 221 222 222 221 220 219 220 221 221 220 219 219 216 214 215 217 217 219 222 226 227 227 230 232 231 232 238 247 257 265 272 283 294 295 293 294 295 296 298 298 297 295 292 291 290 288 288 286 283 281 279 276 274 272 269 268 266 264
229 229 227 225 225 225 223 222 220 218 217 216 213 211 208 207 206 205 204 204 204 205 207 209 211 213 217 220 221 218 214 212 213 215 217 218 218 217 217 215 214 217 221 224 228 232 232 229 225 225 229 233 238 241 243 248 256 265 277 286 286 288 290 291 293 294 293 292 292 291 292 293 292 293 295 293 291 289 285 283 280 277 277 275 272
230 229 227 226 225 224 223 222 219 217 216 213 210 208 206 204 203 204 204 203 201 202 204 205 207 209 211 214 216 214 209 207 210 212 213 213 214 215 215 214 216 220 226 232 238 238 232 226 222 223 228 232 235 237 235 239 249 261 273 280 283 285 285 287 289 290 289 290 291 293 297 300 301 303 305 304 301 299 295 291 288 286 283 282 279
228 227 227 226 225 224 222 219 217 216 214 210 207 206 204 202 201 201 202 201 200 200 201 203 205 207 207 209 211 211 208 206 207 209 209 210 212 213 216 219 222 227 232 237 236 230 225 223 223 222 225 227 227 230 234 238 246 260 273 281 284 284 284 286 286 284 285 289 292 296 302 306 308 309 309 306 303 302 301 298 296 295 292 289 286
227 227 226 225 224 221 218 215 213 213 212 210 209 207 204 202 200 198 198 199 200 201 202 203 205 206 206 207 209 209 207 206 206 207 206 209 212 215 218 222 225 228 231 230 226 221 218 220 221 220 219 221 222 223 226 231 241 257 272 280 283 283 284 286 285 284 288 293 296 300 305 309 309 308 307 305 304 304 303 301 300 299 299 296 293
226 225 224 223 221 217 214 212 210 209 209 208 208 209 208 205 201 198 197 198 200 203 203 203 204 205 206 206 206 205 205 204 204 205 206 208 211 215 219 222 224 224 224 222 218 217 215 215 215 215 213 212 212 215 219 226 239 256 271 279 281 282 283 285 285 286 289 292 295 298 302 304 305 307 306 305 306 305 303 301 300 300 301 300 294
225 224 222 220 217 215 213 211 208 206 207 207 207 207 207 206 204 203 203 201 200 200 202 203 206 206 204 201 199 199 202 204 205 206 206 208 211 215 218 220 222 222 221 218 214 210 209 208 205 201 201 202 200 204 214 223 236 253 271 282 284 283 282 281 282 284 286 289 292 296 299 301 303 306 305 303 304 306 304 302 300 300 300 297 290
226 225 222 217 215 215 213 211 209 207 206 207 209 210 209 208 208 210 210 208 205 204 203 205 208 207 204 200 197 195 199 205 208 209 210 213 216 218 218 219 219 218 216 212 207 201 197 195 193 189 189 192 191 193 200 209 222 244 274 291 293 296 295 292 293 295 295 294 295 297 300 302 302 303 302 302 304 306 305 302 301 300 298 292 285
225 223 220 217 216 215 212 211 211 209 207 207 209 211 213 214 214 215 215 214 213 212 211 211 211 210 206 205 205 205 207 209 208 207 208 212 215 216 216 214 211 207 203 200 199 195 188 183 182 182 181 179 177 177 178 178 176 161 328 312 305 307 305 303 305 306 301 296 296 297 298 299 300 301 301 301 303 306 305 303 301 298 294 288 283
222 219 217 216 215 213 211 210 208 208 208 208 205 205 208 212 215 218 219 217 216 216 216 217 218 215 211 210 212 213 215 215 211 206 204 205 204 203 202 200 198 198 195 192 190 188 184 178 174 173 173 170 167 165 159 146 130 119 109 45 352 325 314 313 315 311 305 302 301 300 299 298 298 300 301 301 304 306 305 302 298 293 290 286 281
220 220 218 216 214 211 209 207 205 204 204 204 203 201 198 195 199 209 215 217 217 216 216 217 219 220 219 218 216 214 214 215 210 203 198 196 194 193 191 191 191 191 191 191 189 183 177 173 169 167 165 163 161 160 159 151 143 141 143 122 19 349 336 331 324 315 310 307 304 303 303 303 301 302 303 304 304 302 299 297 293 290 288 284 280
222 222 218 213 209 207 205 203 202 201 200 198 198 197 194 190 186 184 189 199 208 212 215 216 216 215 214 215 215 214 212 206 197 192 189 189 189 188 187 187 188 188 188 189 186 178 171 168 165 162 161 164 170 175 173 164 156 151 156 210 352 354 346 334 325 320 317 312 307 305 306 307 306 304 304 304 300 295 292 292 290 287 283 280 278
226 225 220 213 208 204 203 202 201 201 200 199 197 196 196 195 188 177 169 172 182 192 200 206 209 207 204 204 207 208 201 192 186 185 187 187 187 187 185 183 182 188 192 190 182 174 168 164 162 163 168 177 181 179 169 158 153 152 152 328 342 349 337 325 320 318 315 310 305 304 305 306 304 300 297 295 292 288 286 286 286 282 277 276 278
230 228 224 218 212 206 204 202 200 200 200 199 199 199 197 195 190 183 178 176 173 171 174 182 191 198 198 194 193 192 188 185 185 187 189 189 188 186 181 175 174 182 188 185 177 171 170 168 168 169 173 177 179 176 165 152 147 144 124 2 335 320 311 308 309 309 306 304 303 303 304 303 302 298 292 287 283 280 280 281 282 279 276 276 277
230 228 224 219 215 210 207 203 200 200 200 199 199 199 197 194 191 188 186 183 175 167 163 164 170 179 185 185 183 183 186 189 190 191 192 191 188 186 181 176 175 178 179 176 173 172 172 171 167 166 171 177 178 176 167 153 145 149 173 286 289 289 292 297 304 308 307 306 307 307 305 302 300 297 291 284 279 278 279 281 281 278 277 277 278
228 226 222 218 214 210 208 205 202 201 199 198 197 195 193 192 190 186 183 179 172 166 162 160 159 162 169 176 182 184 187 190 191 189 187 185 187 189 188 182 177 174 172 170 171 170 167 165 164 167 175 181 180 177 172 167 170 199 233 259 272 279 286 296 304 309 309 309 309 310 308 305 302 300 293 285 281 280 281 283 282 280 278 277 275
227 224 221 217 212 207 205 203 201 199 197 194 192 190 188 186 185 182 179 175 170 165 161 160 161 159 159 165 173 176 175 175 174 174 175 178 183 187 187 181 175 170 166 164 165 166 163 163 168 173 176 179 182 183 182 184 196 218 234 247 261 273 284 292 297 300 303 303 304 305 304 302 301 301 296 289 283 281 282 283 282 280 279 278 274
226 224 221 217 210 205 203 199 196 194 192 190 189 187 184 181 179 177 174 170 167 165 162 161 163 162 160 161 165 166 165 164 164 164 167 171 175 175 175 172 168 166 165 163 164 166 165 165 170 178 181 185 192 197 204 213 221 234 244 250 259 269 278 287 292 297 300 301 301 301 300 299 299 300 298 293 288 285 285 287 287 285 283 281 277
222 220 218 214 208 204 201 197 194 192 190 188 187 185 182 180 177 175 171 168 166 166 165 164 164 164 164 164 166 167 165 162 161 161 161 161 163 165 166 166 164 163 163 162 162 167 171 172 178 189 197 206 215 224 235 241 245 249 253 257 262 267 272 279 285 289 291 292 292 294 296 298 301 301 299 296 293 291 291 293 293 288 282 280 280
218 215 212 209 205 202 199 196 195 193 191 188 186 183 181 180 176 173 170 168 166 165 165 165 163 163 165 167 170 172 169 161 158 158 157 156 157 158 159 160 159 157 157 157 159 167 175 181 190 203 214 225 237 245 250 256 258 260 262 264 266 269 272 272 273 274 276 280 285 291 295 298 302 303 302 300 298 296 295 293 291 286 283 284 284
214 209 205 202 200 198 196 196 195 192 189 186 185 183 181 177 174 171 169 167 166 164 161 159 159 162 165 170 174 175 170 161 156 155 154 153 153 152 152 153 154 155 157 161 165 172 181 190 203 220 233 243 251 256 259 263 265 266 268 270 271 273 274 273 273 273 274 276 280 284 288 292 296 300 302 301 300 299 296 294 293 291 288 286 283
212 207 202 198 196 196 195 194 190 187 185 183 182 181 179 175 172 171 168 165 164 161 155 152 154 159 164 170 174 173 166 159 155 153 151 150 150 149 149 151 154 156 160 164 168 177 192 207 222 238 247 253 259 262 264 267 269 271 274 277 278 280 280 278 276 276 275 276 280 283 286 290 293 294 296 296 296 297 296 292 290 288 285 283 281
206 201 196 193 192 192 192 189 186 184 182 179 175 174 173 172 170 168 165 162 159 156 152 150 152 154 157 162 166 164 159 155 152 150 148 148 148 148 149 152 155 158 162 166 172 187 209 228 241 250 255 260 265 266 268 272 275 277 279 279 278 278 278 277 276 276 279 284 290 293 294 295 294 294 294 295 295 296 297 294 289 287 285 284 283
199 193 188 184 182 181 181 181 179 177 173 168 163 162 163 163 161 159 157 154 151 149 148 148 149 150 151 153 156 155 152 150 149 148 148 149 149 149 151 154 156 159 162 168 182 206 228 241 250 257 261 264 266 268 269 272 274 276 277 277 275 273 272 273 276 278 282 288 293 296 298 299 299 298 296 294 292 293 294 293 292 290 287 285 283
193 187 181 176 172 169 168 168 168 166 163 159 154 151 151 152 152 150 148 146 145 144 145 146 147 148 148 149 150 150 148 147 148 147 148 149 149 149 152 155 157 162 171 183 204 226 241 250 256 259 261 263 265 267 268 268 268 268 266 266 266 268 270 273 278 281 284 287 291 296 300 303 302 299 295 294 294 294 291 289 288 287 286 286 285
186 180 175 171 165 160 158 158 156 154 153 151 149 146 145 146 145 144 144 144 144 144 144 146 147 147 146 146 147 147 147 147 147 146 147 148 148 150 154 158 162 173 184 198 219 239 250 257 261 262 261 261 261 261 261 261 260 258 257 259 263 268 270 273 276 279 282 286 289 293 296 298 298 297 296 295 295 293 290 287 285 284 284 285 286
179 173 168 164 159 154 152 151 149 146 144 142 140 139 138 138 139 140 141 143 144 145 146 147 146 146 146 145 146 146 146 146 146 146 146 147 148 151 158 166 176 189 203 218 237 250 255 258 259 257 255 254 254 254 254 254 255 256 258 261 264 267 268 272 278 283 288 291 292 293 295 296 296 296 294 291 288 287 286 285 284 283 284 285 285
172 166 160 157 154 151 149 148 146 143 142 139 136 134 133 133 134 135 138 141 142 144 146 146 145 146 146 145 146 147 148 147 147 148 148 150 156 164 174 186 198 212 226 236 244 249 249 248 247 245 245 248 250 251 251 253 254 258 262 263 263 266 273 285 294 298 300 300 298 297 298 297 296 294 290 286 284 283 281 280 281 282 283 285 285
160 155 151 148 145 143 144 143 140 139 139 138 136 134 134 134 135 136 139 140 141 142 145 146 146 147 149 148 149 151 151 150 151 153 156 163 173 183 195 208 219 229 234 236 237 237 236 235 236 239 242 245 247 249 251 254 257 262 266 267 271 280 293 304 308 308 307 306 304 301 297 294 291 289 286 283 282 280 278 278 281 282 282 284 285
148 145 142 139 137 137 136 136 135 136 136 136 137 137 136 136 137 139 141 142 142 143 146 148 148 150 151 152 152 154 156 157 161 166 173 183 193 202 213 223 228 231 231 228 226 227 228 231 235 238 241 244 246 250 254 259 263 268 272 276 284 294 302 305 305 305 307 307 306 304 300 293 286 283 282 282 281 279 276 277 279 280 281 282 283